Satellite: AUBIESAT
Catalog number: 37854
Epoch time: 13268.34275450
Element set: 593
Inclination: 101.7012 deg
RA of node: 169.4822 deg
Eccentricity: 0.0232586
Arg of perigee: 098.4185 deg
Mean anomaly: 023.4898 deg
Mean motion: 14.85097630 rev/day
Decay rate: 4.687e-05 rev/day^2
Epoch rev: 10332
Checksum: 318
Satellite: HRBE
Catalog number: 37855
Epoch time: 13269.31349257
Element set: 599
Inclination: 101.7012 deg
RA of node: 170.5855 deg
Eccentricity: 0.0233715
Arg of perigee: 096.2404 deg
Mean anomaly: 019.9799 deg
Mean motion: 14.84732073 rev/day
Decay rate: 4.151e-05 rev/day^2
Epoch rev: 10345
Checksum: 310
Satellite: RS-39
Catalog number: 38051
Epoch time: 13269.89945188
Element set: 831
Inclination: 051.6348 deg
RA of node: 078.6404 deg
Eccentricity: 0.0009898
Arg of perigee: 272.5218 deg
Mean anomaly: 239.6302 deg
Mean motion: 15.35305197 rev/day
Decay rate: 1.4347e-04 rev/day^2
Epoch rev: 9339
Checksum: 346
Satellite: E-STAR
Catalog number: 38079
Epoch time: 13269.84031747
Element set: 478
Inclination: 069.4723 deg
RA of node: 296.9898 deg
Eccentricity: 0.0575511
Arg of perigee: 001.2567 deg
Mean anomaly: 046.7058 deg
Mean motion: 14.56116607 rev/day
Decay rate: 6.4935e-04 rev/day^2
Epoch rev: 8449
Checksum: 355
Satellite: GOLIAT
Catalog number: 38085
Epoch time: 13269.86478342
Element set: 414
Inclination: 069.4744 deg
RA of node: 299.9857 deg
Eccentricity: 0.0587484
Arg of perigee: 002.7012 deg
Mean anomaly: 357.6954 deg
Mean motion: 14.53563864 rev/day
Decay rate: 5.5647e-04 rev/day^2
Epoch rev: 8441
Checksum: 362
Satellite: HORYU-2
Catalog number: 38340
Epoch time: 13268.83904657
Element set: 620
Inclination: 098.2277 deg
RA of node: 217.4253 deg
Eccentricity: 0.0011395
Arg of perigee: 297.5489 deg
Mean anomaly: 062.4674 deg
Mean motion: 14.71177664 rev/day
Decay rate: 1.623e-05 rev/day^2
Epoch rev: 7291
Checksum: 325
Satellite: RS-40
Catalog number: 38736
Epoch time: 13269.66143903
Element set: 384
Inclination: 082.4743 deg
RA of node: 091.8594 deg
Eccentricity: 0.0022114
Arg of perigee: 104.1037 deg
Mean anomaly: 256.2494 deg
Mean motion: 12.42871196 rev/day
Decay rate: 1.0e-07 rev/day^2
Epoch rev: 5285
Checksum: 294
Satellite: PROITERES
Catalog number: 38756
Epoch time: 13269.85214711
Element set: 163
Inclination: 098.2469 deg
RA of node: 348.7344 deg
Eccentricity: 0.0013374
Arg of perigee: 137.4932 deg
Mean anomaly: 222.7301 deg
Mean motion: 14.74339596 rev/day
Decay rate: 4.77e-06 rev/day^2
Epoch rev: 5637
Checksum: 323
Satellite: RAIKO
Catalog number: 38852
Epoch time: 13218.07382584
Element set: 340
Inclination: 051.6160 deg
RA of node: 184.0336 deg
Eccentricity: 0.0004489
Arg of perigee: 261.9162 deg
Mean anomaly: 100.6538 deg
Mean motion: 16.48474690 rev/day
Decay rate: 2.4681979e-01 rev/day^2
Epoch rev: 4784
Checksum: 326
Satellite: FITSAT 1
Catalog number: 38853
Epoch time: 13184.86912902
Element set: 315
Inclination: 051.6252 deg
RA of node: 351.6077 deg
Eccentricity: 0.0011722
Arg of perigee: 245.9321 deg
Mean anomaly: 114.2104 deg
Mean motion: 16.39337660 rev/day
Decay rate: 6.638326e-02 rev/day^2
Epoch rev: 4270
Checksum: 289
Satellite: TechEdSat
Catalog number: 38854
Epoch time: 13124.93253577
Element set: 290
Inclination: 051.6449 deg
RA of node: 297.0261 deg
Eccentricity: 0.0010505
Arg of perigee: 310.8629 deg
Mean anomaly: 049.0629 deg
Mean motion: 16.38844728 rev/day
Decay rate: 1.1592855e-01 rev/day^2
Epoch rev: 3329
Checksum: 325
Satellite: F 1
Catalog number: 38855
Epoch time: 13129.77714356
Element set: 287
Inclination: 051.5085 deg
RA of node: 272.4145 deg
Eccentricity: 0.0008326
Arg of perigee: 194.2908 deg
Mean anomaly: 166.5495 deg
Mean motion: 16.49710473 rev/day
Decay rate: 2.7424026e-01 rev/day^2
Epoch rev: 3394
Checksum: 332
Satellite: WeWish
Catalog number: 38856
Epoch time: 13069.98095549
Element set: 248
Inclination: 051.6166 deg
RA of node: 215.0521 deg
Eccentricity: 0.0008325
Arg of perigee: 316.0438 deg
Mean anomaly: 044.8765 deg
Mean motion: 16.41348316 rev/day
Decay rate: 1.6701328e-01 rev/day^2
Epoch rev: 2458
Checksum: 318
Satellite: OSSI-1
Catalog number: 39131
Epoch time: 13188.41684431
Element set: 8
Inclination: 064.8841 deg
RA of node: 114.8425 deg
Eccentricity: 0.0051126
Arg of perigee: 026.6892 deg
Mean anomaly: 350.0589 deg
Mean motion: 16.22925119 rev/day
Decay rate: 1.502874e-02 rev/day^2
Epoch rev: 1237
Checksum: 296
Satellite: BEESAT-3
Catalog number: 39134
Epoch time: 13268.57412685
Element set: 380
Inclination: 064.8772 deg
RA of node: 253.1479 deg
Eccentricity: 0.0002672
Arg of perigee: 241.9992 deg
Mean anomaly: 118.0864 deg
Mean motion: 15.00993265 rev/day
Decay rate: 3.282e-05 rev/day^2
Epoch rev: 2389
Checksum: 324
Satellite: BEESAT-2
Catalog number: 39136
Epoch time: 13269.91093526
Element set: 373
Inclination: 064.8776 deg
RA of node: 248.9783 deg
Eccentricity: 0.0002561
Arg of perigee: 239.9025 deg
Mean anomaly: 120.1851 deg
Mean motion: 15.00905732 rev/day
Decay rate: 3.158e-05 rev/day^2
Epoch rev: 2409
Checksum: 307
/EX